Time,TemperatureF,DewpointF,PressureIn,WindDirection,WindDirectionDegrees,WindSpeedMPH,WindSpeedGustMPH,Humidity,HourlyPrecipIn,Conditions,Clouds,dailyrainin,SolarRadiationWatts/m^2,SoftwareType,DateUTC
2013-01-31 00:00:00,40.9,29.7,30.27,NE,45,0.0,0.0,64,0.00,,---,0.00,0.00,VWS V14.01,2013-01-31 08:00:00,
2013-01-31 00:06:00,40.8,29.0,30.27,NE,40,0.0,0.0,64,0.00,,,0.00,0,weatherlink.com 1.10,2013-01-31 08:06:00,
2013-01-31 00:15:00,40.8,29.6,30.27,NE,45,0.0,0.0,64,0.00,,---,0.00,0.00,VWS V14.01,2013-01-31 08:15:00,
2013-01-31 00:21:00,40.6,29.0,30.27,NE,40,0.0,0.0,64,0.00,,,0.00,0,weatherlink.com 1.10,2013-01-31 08:21:00,
2013-01-31 00:30:00,40.5,29.7,30.27,NE,45,1.0,5.0,65,0.00,,---,0.00,0.00,VWS V14.01,2013-01-31 08:30:00,
2013-01-31 00:36:00,40.2,29.0,30.27,NE,40,5.0,5.0,65,0.00,,,0.00,0,weatherlink.com 1.10,2013-01-31 08:36:00,
2013-01-31 00:45:00,40.3,29.1,30.27,NE,45,4.0,7.0,64,0.00,,---,0.00,0.00,VWS V14.01,2013-01-31 08:45:00,
2013-01-31 00:51:00,40.9,29.0,30.27,NNE,18,3.0,7.0,63,0.00,,,0.00,0,weatherlink.com 1.10,2013-01-31 08:51:00,
2013-01-31 01:00:00,40.9,28.9,30.27,NNE,22,3.0,6.0,62,0.00,,---,0.00,0.00,VWS V14.01,2013-01-31 09:00:00,
2013-01-31 01:06:00,41.2,29.0,30.27,NNE,18,3.0,4.0,62,0.00,,,0.00,0,weatherlink.com 1.10,2013-01-31 09:06:00,
2013-01-31 01:15:00,41.3,28.9,30.27,NNE,22,3.0,8.0,61,0.00,,---,0.00,0.00,VWS V14.01,2013-01-31 09:15:00,
2013-01-31 01:21:00,42.1,29.0,30.27,North,357,4.0,8.0,60,0.00,,,0.00,0,weatherlink.com 1.10,2013-01-31 09:21:00,
2013-01-31 01:30:00,42.1,29.2,30.27,North,0,4.0,7.0,60,0.00,,---,0.00,0.00,VWS V14.01,2013-01-31 09:30:00,
2013-01-31 01:36:00,42.5,29.0,30.27,North,355,3.0,7.0,59,0.00,,,0.00,0,weatherlink.com 1.10,2013-01-31 09:36:00,
2013-01-31 01:45:00,42.6,28.9,30.27,North,0,4.0,6.0,58,0.00,,---,0.00,0.00,VWS V14.01,2013-01-31 09:45:00,
2013-01-31 01:52:00,44.1,29.0,30.27,North,354,4.0,7.0,55,0.00,,,0.00,0,weatherlink.com 1.10,2013-01-31 09:52:00,
2013-01-31 02:00:00,44.3,28.7,30.27,North,0,4.0,7.0,54,0.00,,---,0.00,0.00,VWS V14.01,2013-01-31 10:00:00,
2013-01-31 02:06:00,45.2,29.0,30.27,North,354,2.0,5.0,53,0.00,,,0.00,0,weatherlink.com 1.10,2013-01-31 10:06:00,
2013-01-31 02:15:00,45.3,29.2,30.27,North,0,2.0,4.0,53,0.00,,---,0.00,0.00,VWS V14.01,2013-01-31 10:15:00,
2013-01-31 02:22:00,45.5,29.0,30.27,North,354,0.0,4.0,53,0.00,,,0.00,0,weatherlink.com 1.10,2013-01-31 10:22:00,
2013-01-31 02:30:00,45.5,29.8,30.27,North,0,0.0,3.0,54,0.00,,---,0.00,0.00,VWS V14.01,2013-01-31 10:30:00,
2013-01-31 02:36:00,44.9,29.0,30.27,North,354,0.0,1.0,54,0.00,,,0.00,0,weatherlink.com 1.10,2013-01-31 10:36:00,
2013-01-31 02:45:00,44.7,30.0,30.26,North,0,0.0,1.0,56,0.00,,---,0.00,0.00,VWS V14.01,2013-01-31 10:45:00,
2013-01-31 02:51:00,43.3,29.0,30.26,North,354,0.0,2.0,57,0.00,,,0.00,0,weatherlink.com 1.10,2013-01-31 10:51:00,
2013-01-31 03:00:00,43.2,29.9,30.26,North,0,0.0,2.0,59,0.00,,---,0.00,0.00,VWS V14.01,2013-01-31 11:00:00,
2013-01-31 03:06:00,41.9,29.0,30.26,North,354,0.0,2.0,61,0.00,,,0.00,0,weatherlink.com 1.10,2013-01-31 11:06:00,
2013-01-31 03:15:00,41.7,29.3,30.26,North,0,0.0,2.0,61,0.00,,---,0.00,0.00,VWS V14.01,2013-01-31 11:15:00,
2013-01-31 03:21:00,40.8,29.0,30.25,North,354,0.0,0.0,63,0.00,,,0.00,0,weatherlink.com 1.10,2013-01-31 11:21:00,
2013-01-31 03:30:00,40.7,29.5,30.25,North,0,0.0,0.0,64,0.00,,---,0.00,0.00,VWS V14.01,2013-01-31 11:30:00,
2013-01-31 03:36:00,39.8,29.0,30.25,North,354,0.0,0.0,65,0.00,,,0.00,0,weatherlink.com 1.10,2013-01-31 11:36:00,
2013-01-31 03:45:00,39.6,29.2,30.25,North,0,0.0,0.0,66,0.00,,---,0.00,0.00,VWS V14.01,2013-01-31 11:45:00,
2013-01-31 03:51:00,38.8,29.0,30.25,North,354,0.0,0.0,67,0.00,,,0.00,0,weatherlink.com 1.10,2013-01-31 11:51:00,
2013-01-31 04:00:00,38.7,29.1,30.25,North,0,0.0,0.0,68,0.00,,---,0.00,0.00,VWS V14.01,2013-01-31 12:00:00,
2013-01-31 04:07:00,38.0,29.0,30.25,North,354,0.0,0.0,69,0.00,,,0.00,0,weatherlink.com 1.10,2013-01-31 12:07:00,
2013-01-31 04:15:00,38.0,28.8,30.25,North,0,0.0,0.0,69,0.00,,---,0.00,0.00,VWS V14.01,2013-01-31 12:15:00,
2013-01-31 04:22:00,37.5,28.0,30.25,North,354,0.0,0.0,69,0.00,,,0.00,0,weatherlink.com 1.10,2013-01-31 12:22:00,
2013-01-31 04:30:00,37.4,28.5,30.25,North,0,0.0,0.0,70,0.00,,---,0.00,0.00,VWS V14.01,2013-01-31 12:30:00,
2013-01-31 04:37:00,37.0,28.0,30.25,North,354,2.0,3.0,71,0.00,,,0.00,0,weatherlink.com 1.10,2013-01-31 12:37:00,
2013-01-31 04:45:00,37.0,28.5,30.25,North,0,1.0,3.0,71,0.00,,---,0.00,0.00,VWS V14.01,2013-01-31 12:45:00,
2013-01-31 04:52:00,36.9,28.0,30.25,North,354,1.0,2.0,71,0.00,,,0.00,0,weatherlink.com 1.10,2013-01-31 12:52:00,
2013-01-31 05:00:00,36.9,28.4,30.25,North,0,1.0,2.0,71,0.00,,---,0.00,0.00,VWS V14.01,2013-01-31 13:00:00,
2013-01-31 05:07:00,37.0,28.0,30.25,North,354,0.0,2.0,71,0.00,,,0.00,0,weatherlink.com 1.10,2013-01-31 13:07:00,
2013-01-31 05:15:00,37.0,28.5,30.25,North,0,0.0,1.0,71,0.00,,---,0.00,0.00,VWS V14.01,2013-01-31 13:15:00,
2013-01-31 05:22:00,37.0,28.0,30.25,North,354,0.0,0.0,71,0.00,,,0.00,0,weatherlink.com 1.10,2013-01-31 13:22:00,
2013-01-31 05:30:00,36.9,28.4,30.25,North,0,0.0,0.0,71,0.00,,---,0.00,0.00,VWS V14.01,2013-01-31 13:30:00,
2013-01-31 05:37:00,36.9,28.0,30.25,North,354,1.0,3.0,71,0.00,,,0.00,0,weatherlink.com 1.10,2013-01-31 13:37:00,
2013-01-31 05:45:00,36.9,28.4,30.25,North,0,1.0,3.0,71,0.00,,---,0.00,0.00,VWS V14.01,2013-01-31 13:45:00,
2013-01-31 05:52:00,37.2,28.0,30.25,North,354,2.0,3.0,70,0.00,,,0.00,0,weatherlink.com 1.10,2013-01-31 13:52:00,
2013-01-31 06:00:00,37.3,28.1,30.25,North,0,2.0,3.0,69,0.00,,---,0.00,0.00,VWS V14.01,2013-01-31 14:00:00,
2013-01-31 06:07:00,38.2,28.0,30.26,North,354,0.0,3.0,68,0.00,,,0.00,0,weatherlink.com 1.10,2013-01-31 14:07:00,
2013-01-31 06:15:00,38.3,28.3,30.26,North,0,0.0,2.0,67,0.00,,---,0.00,0.00,VWS V14.01,2013-01-31 14:15:00,
2013-01-31 06:22:00,38.6,28.0,30.26,North,354,0.0,0.0,66,0.00,,,0.00,0,weatherlink.com 1.10,2013-01-31 14:22:00,
2013-01-31 06:30:00,38.6,28.6,30.26,North,0,0.0,0.0,67,0.00,,---,0.00,0.00,VWS V14.01,2013-01-31 14:30:00,
2013-01-31 06:37:00,38.2,28.0,30.26,North,354,0.0,0.0,67,0.00,,,0.00,0,weatherlink.com 1.10,2013-01-31 14:37:00,
2013-01-31 06:45:00,38.2,28.2,30.26,North,0,0.0,0.0,67,0.00,,---,0.00,0.00,VWS V14.01,2013-01-31 14:45:00,
2013-01-31 06:52:00,37.5,28.0,30.27,North,354,0.0,0.0,69,0.00,,,0.00,7,weatherlink.com 1.10,2013-01-31 14:52:00,
2013-01-31 07:00:00,37.4,28.5,30.27,North,0,0.0,0.0,70,0.00,,---,0.00,7.00,VWS V14.01,2013-01-31 15:00:00,
2013-01-31 07:07:00,36.6,28.0,30.27,North,354,0.0,0.0,71,0.00,,,0.00,40,weatherlink.com 1.10,2013-01-31 15:07:00,
2013-01-31 07:15:00,36.6,28.4,30.27,North,0,0.0,0.0,72,0.00,,---,0.00,46.00,VWS V14.01,2013-01-31 15:15:00,
2013-01-31 07:22:00,36.3,28.0,30.27,North,354,0.0,0.0,73,0.00,,,0.00,88,weatherlink.com 1.10,2013-01-31 15:22:00,
2013-01-31 07:30:00,36.4,28.9,30.27,North,0,0.0,0.0,74,0.00,,---,0.00,94.00,VWS V14.01,2013-01-31 15:30:00,
2013-01-31 07:37:00,36.9,29.0,30.28,North,354,0.0,2.0,73,0.00,,,0.00,144,weatherlink.com 1.10,2013-01-31 15:37:00,
2013-01-31 07:45:00,37.0,29.2,30.28,North,0,0.0,2.0,73,0.00,,---,0.00,148.00,VWS V14.01,2013-01-31 15:45:00,
2013-01-31 07:52:00,38.5,30.0,30.28,North,354,0.0,0.0,72,0.00,,,0.00,188,weatherlink.com 1.10,2013-01-31 15:52:00,
2013-01-31 08:00:00,38.7,29.4,30.28,North,0,0.0,0.0,69,0.00,,---,0.00,194.00,VWS V14.01,2013-01-31 16:00:00,
2013-01-31 08:07:00,41.2,31.0,30.28,North,354,0.0,0.0,66,0.00,,,0.00,234,weatherlink.com 1.10,2013-01-31 16:07:00,
2013-01-31 08:15:00,41.4,29.0,30.28,North,0,0.0,3.0,61,0.00,,---,0.00,237.00,VWS V14.01,2013-01-31 16:15:00,
2013-01-31 08:22:00,44.5,29.0,30.28,North,354,1.0,4.0,55,0.00,,,0.00,276,weatherlink.com 1.10,2013-01-31 16:22:00,
2013-01-31 08:30:00,44.8,27.3,30.28,North,0,2.0,5.0,50,0.00,,---,0.00,282.00,VWS V14.01,2013-01-31 16:30:00,
2013-01-31 08:38:00,48.0,29.0,30.29,North,354,3.0,4.0,48,0.00,,,0.00,322,weatherlink.com 1.10,2013-01-31 16:38:00,
2013-01-31 08:45:00,48.1,28.3,30.29,North,0,2.0,4.0,46,0.00,,---,0.00,325.00,VWS V14.01,2013-01-31 16:45:00,
2013-01-31 08:52:00,50.1,29.0,30.29,North,354,4.0,4.0,45,0.00,,,0.00,364,weatherlink.com 1.10,2013-01-31 16:52:00,
2013-01-31 09:00:00,50.1,27.9,30.29,North,0,2.0,5.0,42,0.00,,---,0.00,366.00,VWS V14.01,2013-01-31 17:00:00,
2013-01-31 09:07:00,51.7,28.0,30.29,North,354,4.0,5.0,41,0.00,,,0.00,403,weatherlink.com 1.10,2013-01-31 17:07:00,
2013-01-31 09:15:00,51.8,27.6,30.29,North,0,3.0,7.0,39,0.00,,---,0.00,406.00,VWS V14.01,2013-01-31 17:15:00,
2013-01-31 09:22:00,53.2,28.0,30.28,North,354,7.0,7.0,38,0.00,,,0.00,441,weatherlink.com 1.10,2013-01-31 17:22:00,
2013-01-31 09:30:00,53.2,27.6,30.28,North,0,5.0,8.0,37,0.00,,---,0.00,445.00,VWS V14.01,2013-01-31 17:30:00,
2013-01-31 09:38:00,54.2,28.0,30.29,NNW,340,4.0,8.0,36,0.00,,,0.00,480,weatherlink.com 1.10,2013-01-31 17:38:00,
2013-01-31 09:45:00,54.4,27.3,30.29,NNW,338,5.0,8.0,35,0.00,,---,0.00,481.00,VWS V14.01,2013-01-31 17:45:00,
2013-01-31 09:53:00,55.4,28.0,30.29,NNW,336,1.0,8.0,35,0.00,,,0.00,512,weatherlink.com 1.10,2013-01-31 17:53:00,
2013-01-31 10:00:00,55.5,26.9,30.29,NNW,338,3.0,7.0,33,0.00,,---,0.00,514.00,VWS V14.01,2013-01-31 18:00:00,
2013-01-31 10:08:00,56.9,27.0,30.29,NNW,336,0.0,6.0,32,0.00,,,0.00,543,weatherlink.com 1.10,2013-01-31 18:08:00,
2013-01-31 10:15:00,56.8,26.5,30.28,NNW,338,3.0,6.0,31,0.00,,---,0.00,544.00,VWS V14.01,2013-01-31 18:15:00,
2013-01-31 10:23:00,58.3,27.0,30.28,NNW,336,3.0,5.0,30,0.00,,,0.00,570,weatherlink.com 1.10,2013-01-31 18:23:00,
2013-01-31 10:30:00,58.3,26.2,30.28,NNW,338,3.0,5.0,29,0.00,,---,0.00,571.00,VWS V14.01,2013-01-31 18:30:00,
2013-01-31 10:38:00,59.8,26.0,30.28,NNW,336,2.0,4.0,28,0.00,,,0.00,592,weatherlink.com 1.10,2013-01-31 18:38:00,
2013-01-31 10:45:00,59.8,25.8,30.28,NNW,338,1.0,4.0,27,0.00,,---,0.00,594.00,VWS V14.01,2013-01-31 18:45:00,
2013-01-31 10:53:00,61.2,28.0,30.28,NNW,336,0.0,4.0,28,0.00,,,0.00,613,weatherlink.com 1.10,2013-01-31 18:53:00,
2013-01-31 11:00:00,61.2,27.0,30.27,NNW,338,1.0,4.0,27,0.00,,---,0.00,613.00,VWS V14.01,2013-01-31 19:00:00,
2013-01-31 11:08:00,62.9,27.0,30.27,NNW,336,4.0,4.0,26,0.00,,,0.00,631,weatherlink.com 1.10,2013-01-31 19:08:00,
2013-01-31 11:15:00,62.9,26.6,30.27,NNW,338,1.0,5.0,25,0.00,,---,0.00,631.00,VWS V14.01,2013-01-31 19:15:00,
2013-01-31 11:23:00,64.0,27.0,30.27,NNW,340,3.0,4.0,25,0.00,,,0.00,642,weatherlink.com 1.10,2013-01-31 19:23:00,
2013-01-31 11:30:00,63.9,28.4,30.27,NNW,338,2.0,4.0,26,0.00,,---,0.00,643.00,VWS V14.01,2013-01-31 19:30:00,
2013-01-31 11:38:00,63.2,28.0,30.26,NNW,341,0.0,4.0,26,0.00,,,0.00,650,weatherlink.com 1.10,2013-01-31 19:38:00,
2013-01-31 11:45:00,63.5,27.1,30.26,NNW,338,1.0,4.0,25,0.00,,---,0.00,651.00,VWS V14.01,2013-01-31 19:45:00,
2013-01-31 11:53:00,64.8,28.0,30.25,NNW,340,0.0,3.0,25,0.00,,,0.00,654,weatherlink.com 1.10,2013-01-31 19:53:00,
2013-01-31 12:00:00,64.8,28.2,30.25,NNW,338,1.0,4.0,25,0.00,,---,0.00,654.00,VWS V14.01,2013-01-31 20:00:00,
2013-01-31 12:08:00,65.3,28.0,30.25,NNW,346,3.0,4.0,25,0.00,,,0.00,656,weatherlink.com 1.10,2013-01-31 20:08:00,
2013-01-31 12:15:00,65.3,28.6,30.24,NNW,338,2.0,5.0,25,0.00,,---,0.00,655.00,VWS V14.01,2013-01-31 20:15:00,
2013-01-31 12:23:00,65.0,28.0,30.24,NNE,12,0.0,5.0,25,0.00,,,0.00,652,weatherlink.com 1.10,2013-01-31 20:23:00,
2013-01-31 12:30:00,65.0,29.3,30.23,NNE,22,3.0,7.0,26,0.00,,---,0.00,652.00,VWS V14.01,2013-01-31 20:30:00,
2013-01-31 12:38:00,64.3,29.0,30.23,NE,51,4.0,9.0,26,0.00,,,0.00,643,weatherlink.com 1.10,2013-01-31 20:38:00,
2013-01-31 12:45:00,64.5,28.9,30.23,NE,45,5.0,10.0,26,0.00,,---,0.00,644.00,VWS V14.01,2013-01-31 20:45:00,
2013-01-31 12:53:00,64.2,28.0,30.23,ENE,64,7.0,9.0,26,0.00,,,0.00,633,weatherlink.com 1.10,2013-01-31 20:53:00,
2013-01-31 13:00:00,64.3,28.7,30.23,ENE,68,5.0,10.0,26,0.00,,---,0.00,633.00,VWS V14.01,2013-01-31 21:00:00,
2013-01-31 13:08:00,64.3,29.0,30.22,ENE,66,7.0,10.0,26,0.00,,,0.00,617,weatherlink.com 1.10,2013-01-31 21:08:00,
2013-01-31 13:15:00,64.3,28.7,30.22,ENE,68,4.0,10.0,26,0.00,,---,0.00,617.00,VWS V14.01,2013-01-31 21:15:00,
2013-01-31 13:24:00,64.8,29.0,30.21,ENE,67,3.0,7.0,26,0.00,,,0.00,599,weatherlink.com 1.10,2013-01-31 21:24:00,
2013-01-31 13:30:00,64.6,29.0,30.21,ENE,68,4.0,9.0,26,0.00,,---,0.00,598.00,VWS V14.01,2013-01-31 21:30:00,
2013-01-31 13:38:00,64.5,29.0,30.20,ENE,67,7.0,9.0,26,0.00,,,0.00,577,weatherlink.com 1.10,2013-01-31 21:38:00,
2013-01-31 13:45:00,64.6,29.0,30.20,ENE,68,5.0,10.0,26,0.00,,---,0.00,576.00,VWS V14.01,2013-01-31 21:45:00,
2013-01-31 13:54:00,65.0,29.0,30.20,ENE,68,2.0,8.0,26,0.00,,,0.00,550,weatherlink.com 1.10,2013-01-31 21:54:00,
2013-01-31 14:00:00,65.0,28.4,30.19,ENE,68,4.0,8.0,25,0.00,,---,0.00,549.00,VWS V14.01,2013-01-31 22:00:00,
2013-01-31 14:08:00,65.5,29.0,30.19,ENE,68,4.0,8.0,25,0.00,,,0.00,522,weatherlink.com 1.10,2013-01-31 22:08:00,
2013-01-31 14:15:00,65.5,28.8,30.19,ENE,68,4.0,11.0,25,0.00,,---,0.00,521.00,VWS V14.01,2013-01-31 22:15:00,
2013-01-31 14:23:00,65.8,28.0,30.19,ENE,73,7.0,10.0,24,0.00,,,0.00,492,weatherlink.com 1.10,2013-01-31 22:23:00,
2013-01-31 14:30:00,65.8,28.0,30.18,ENE,68,4.0,10.0,24,0.00,,---,0.00,491.00,VWS V14.01,2013-01-31 22:30:00,
2013-01-31 14:39:00,66.1,28.0,30.18,ENE,68,3.0,11.0,24,0.00,,,0.00,457,weatherlink.com 1.10,2013-01-31 22:39:00,
2013-01-31 14:45:00,66.1,28.3,30.17,ENE,68,5.0,13.0,24,0.00,,---,0.00,458.00,VWS V14.01,2013-01-31 22:45:00,
2013-01-31 14:53:00,66.0,28.0,30.17,ENE,70,5.0,10.0,24,0.00,,,0.00,420,weatherlink.com 1.10,2013-01-31 22:53:00,
2013-01-31 15:00:00,66.0,28.2,30.17,ENE,68,5.0,11.0,24,0.00,,---,0.00,420.00,VWS V14.01,2013-01-31 23:00:00,
2013-01-31 15:09:00,65.8,28.0,30.17,ENE,74,2.0,11.0,24,0.00,,,0.00,232,weatherlink.com 1.10,2013-01-31 23:09:00,
2013-01-31 15:15:00,66.0,28.2,30.17,ENE,68,6.0,11.0,24,0.00,,---,0.00,303.00,VWS V14.01,2013-01-31 23:15:00,
2013-01-31 15:24:00,66.3,27.0,30.16,ENE,78,4.0,8.0,23,0.00,,,0.00,343,weatherlink.com 1.10,2013-01-31 23:24:00,
2013-01-31 15:30:00,66.2,27.3,30.16,ENE,68,4.0,9.0,23,0.00,,---,0.00,344.00,VWS V14.01,2013-01-31 23:30:00,
2013-01-31 15:39:00,66.4,27.0,30.16,East,79,4.0,9.0,23,0.00,,,0.00,302,weatherlink.com 1.10,2013-01-31 23:39:00,
2013-01-31 15:45:00,66.4,27.5,30.16,East,90,5.0,11.0,23,0.00,,---,0.00,301.00,VWS V14.01,2013-01-31 23:45:00,
2013-01-31 15:54:00,66.3,27.0,30.16,East,84,5.0,9.0,23,0.00,,,0.00,258,weatherlink.com 1.10,2013-01-31 23:54:00,
2013-01-31 16:00:00,66.2,28.4,30.15,East,90,4.0,9.0,24,0.00,,---,0.00,258.00,VWS V14.01,2013-02-01 00:00:00,
2013-01-31 16:09:00,66.0,27.0,30.15,East,84,4.0,9.0,23,0.00,,,0.00,213,weatherlink.com 1.10,2013-02-01 00:09:00,
2013-01-31 16:15:00,66.0,28.2,30.15,East,90,4.0,9.0,24,0.00,,---,0.00,214.00,VWS V14.01,2013-02-01 00:15:00,
2013-01-31 16:24:00,65.6,28.0,30.15,East,84,3.0,8.0,24,0.00,,,0.00,171,weatherlink.com 1.10,2013-02-01 00:24:00,
2013-01-31 16:30:00,65.6,27.9,30.15,East,90,4.0,8.0,24,0.00,,---,0.00,169.00,VWS V14.01,2013-02-01 00:30:00,
2013-01-31 16:39:00,65.3,27.0,30.15,East,84,4.0,7.0,24,0.00,,,0.00,109,weatherlink.com 1.10,2013-02-01 00:39:00,
2013-01-31 16:45:00,65.3,27.6,30.15,East,90,3.0,7.0,24,0.00,,---,0.00,112.00,VWS V14.01,2013-02-01 00:45:00,
2013-01-31 16:55:00,65.0,28.0,30.15,East,84,1.0,4.0,25,0.00,,,0.00,56,weatherlink.com 1.10,2013-02-01 00:55:00,
2013-01-31 17:00:00,65.0,28.4,30.15,East,90,2.0,4.0,25,0.00,,---,0.00,56.00,VWS V14.01,2013-02-01 01:00:00,
2013-01-31 17:09:00,63.9,28.0,30.15,East,84,2.0,7.0,26,0.00,,,0.00,11,weatherlink.com 1.10,2013-02-01 01:09:00,
2013-01-31 17:15:00,63.9,29.3,30.15,East,90,3.0,7.0,27,0.00,,---,0.00,14.00,VWS V14.01,2013-02-01 01:15:00,
2013-01-31 17:24:00,62.4,29.0,30.15,East,84,1.0,4.0,28,0.00,,,0.00,0,weatherlink.com 1.10,2013-02-01 01:24:00,
2013-01-31 17:30:00,62.4,28.9,30.15,East,90,2.0,4.0,28,0.00,,---,0.00,2.00,VWS V14.01,2013-02-01 01:30:00,
2013-01-31 17:39:00,61.3,28.0,30.15,East,84,0.0,3.0,28,0.00,,,0.00,0,weatherlink.com 1.10,2013-02-01 01:39:00,
2013-01-31 17:45:00,61.4,28.0,30.16,East,90,1.0,3.0,28,0.00,,---,0.00,0.00,VWS V14.01,2013-02-01 01:45:00,
2013-01-31 17:54:00,60.5,26.0,30.16,East,84,2.0,4.0,27,0.00,,,0.00,0,weatherlink.com 1.10,2013-02-01 01:54:00,
2013-01-31 18:00:00,60.6,28.2,30.16,East,90,1.0,4.0,29,0.00,,---,0.00,0.00,VWS V14.01,2013-02-01 02:00:00,
2013-01-31 18:09:00,59.5,27.0,30.16,East,84,0.0,2.0,29,0.00,,,0.00,0,weatherlink.com 1.10,2013-02-01 02:09:00,
2013-01-31 18:15:00,59.5,28.1,30.16,East,90,0.0,2.0,30,0.00,,---,0.00,0.00,VWS V14.01,2013-02-01 02:15:00,
2013-01-31 18:24:00,58.1,27.0,30.16,East,84,1.0,2.0,31,0.00,,,0.00,0,weatherlink.com 1.10,2013-02-01 02:24:00,
2013-01-31 18:30:00,58.2,28.5,30.17,East,90,1.0,4.0,32,0.00,,---,0.00,0.00,VWS V14.01,2013-02-01 02:30:00,
2013-01-31 18:39:00,56.5,28.0,30.17,East,84,1.0,3.0,33,0.00,,,0.00,0,weatherlink.com 1.10,2013-02-01 02:39:00,
2013-01-31 18:45:00,56.6,28.6,30.17,East,90,2.0,8.0,34,0.00,,---,0.00,0.00,VWS V14.01,2013-02-01 02:45:00,
2013-01-31 18:54:00,56.2,27.0,30.18,East,85,4.0,8.0,33,0.00,,,0.00,0,weatherlink.com 1.10,2013-02-01 02:54:00,
2013-01-31 19:00:00,56.1,28.1,30.17,East,90,4.0,8.0,34,0.00,,---,0.00,0.00,VWS V14.01,2013-02-01 03:00:00,
2013-01-31 19:09:00,55.9,28.0,30.18,East,85,2.0,5.0,34,0.00,,,0.00,0,weatherlink.com 1.10,2013-02-01 03:09:00,
2013-01-31 19:15:00,55.9,28.0,30.18,East,90,2.0,5.0,34,0.00,,---,0.00,0.00,VWS V14.01,2013-02-01 03:15:00,
2013-01-31 19:24:00,55.4,28.0,30.18,East,85,1.0,4.0,35,0.00,,,0.00,0,weatherlink.com 1.10,2013-02-01 03:24:00,
2013-01-31 19:30:00,55.5,28.3,30.18,East,90,1.0,4.0,35,0.00,,---,0.00,0.00,VWS V14.01,2013-02-01 03:30:00,
2013-01-31 19:39:00,54.7,28.0,30.18,East,85,0.0,2.0,36,0.00,,,0.00,0,weatherlink.com 1.10,2013-02-01 03:39:00,
2013-01-31 19:45:00,54.7,28.3,30.18,East,90,1.0,4.0,36,0.00,,---,0.00,0.00,VWS V14.01,2013-02-01 03:45:00,
2013-01-31 19:54:00,54.1,28.0,30.19,East,85,1.0,3.0,37,0.00,,,0.00,0,weatherlink.com 1.10,2013-02-01 03:54:00,
2013-01-31 20:00:00,54.0,29.0,30.19,East,90,2.0,7.0,38,0.00,,---,0.00,0.00,VWS V14.01,2013-02-01 04:00:00,
2013-01-31 20:09:00,53.6,28.0,30.19,East,85,2.0,7.0,38,0.00,,,0.00,0,weatherlink.com 1.10,2013-02-01 04:09:00,
2013-01-31 20:15:00,53.7,28.7,30.19,East,90,4.0,7.0,38,0.00,,---,0.00,0.00,VWS V14.01,2013-02-01 04:15:00,
2013-01-31 20:24:00,53.9,29.0,30.19,East,85,3.0,7.0,38,0.00,,,0.00,0,weatherlink.com 1.10,2013-02-01 04:24:00,
2013-01-31 20:30:00,53.9,26.9,30.19,East,90,4.0,7.0,35,0.00,,---,0.00,0.00,VWS V14.01,2013-02-01 04:30:00,
2013-01-31 20:39:00,54.4,28.0,30.19,East,85,2.0,7.0,37,0.00,,,0.00,0,weatherlink.com 1.10,2013-02-01 04:39:00,
2013-01-31 20:45:00,54.3,29.2,30.19,East,90,3.0,7.0,38,0.00,,---,0.00,0.00,VWS V14.01,2013-02-01 04:45:00,
2013-01-31 20:54:00,53.5,29.0,30.19,East,85,0.0,4.0,39,0.00,,,0.00,0,weatherlink.com 1.10,2013-02-01 04:54:00,
2013-01-31 21:00:00,53.5,30.4,30.19,East,90,1.0,3.0,41,0.00,,---,0.00,0.00,VWS V14.01,2013-02-01 05:00:00,
2013-01-31 21:09:00,51.4,29.0,30.20,East,85,0.0,3.0,43,0.00,,,0.00,0,weatherlink.com 1.10,2013-02-01 05:09:00,
2013-01-31 21:15:00,51.6,29.9,30.20,East,90,1.0,3.0,43,0.00,,---,0.00,0.00,VWS V14.01,2013-02-01 05:15:00,
2013-01-31 21:24:00,49.9,29.0,30.20,East,85,0.0,0.0,45,0.00,,,0.00,0,weatherlink.com 1.10,2013-02-01 05:24:00,
2013-01-31 21:30:00,49.9,30.5,30.20,East,90,0.0,0.0,47,0.00,,---,0.00,0.00,VWS V14.01,2013-02-01 05:30:00,
2013-01-31 21:39:00,48.3,29.0,30.20,East,85,0.0,0.0,48,0.00,,,0.00,0,weatherlink.com 1.10,2013-02-01 05:39:00,
2013-01-31 21:45:00,48.3,30.5,30.20,East,90,0.0,0.0,50,0.00,,---,0.00,0.00,VWS V14.01,2013-02-01 05:45:00,
2013-01-31 21:54:00,47.1,29.0,30.20,East,85,0.0,0.0,50,0.00,,,0.00,0,weatherlink.com 1.10,2013-02-01 05:54:00,
2013-01-31 22:00:00,47.1,29.4,30.20,East,90,0.0,0.0,50,0.00,,---,0.00,0.00,VWS V14.01,2013-02-01 06:00:00,
2013-01-31 22:09:00,46.4,29.0,30.20,East,85,0.0,0.0,52,0.00,,,0.00,0,weatherlink.com 1.10,2013-02-01 06:09:00,
2013-01-31 22:15:00,46.5,29.8,30.20,East,90,0.0,2.0,52,0.00,,---,0.00,0.00,VWS V14.01,2013-02-01 06:15:00,
2013-01-31 22:24:00,46.0,29.0,30.19,East,85,2.0,3.0,52,0.00,,,0.00,0,weatherlink.com 1.10,2013-02-01 06:24:00,
2013-01-31 22:30:00,46.0,29.4,30.19,East,90,1.0,3.0,52,0.00,,---,0.00,0.00,VWS V14.01,2013-02-01 06:30:00,
2013-01-31 22:39:00,45.7,29.0,30.19,East,85,1.0,2.0,52,0.00,,,0.00,0,weatherlink.com 1.10,2013-02-01 06:39:00,
2013-01-31 22:45:00,45.6,29.0,30.19,East,90,1.0,2.0,52,0.00,,---,0.00,0.00,VWS V14.01,2013-02-01 06:45:00,
2013-01-31 22:54:00,45.2,29.0,30.20,East,85,1.0,3.0,53,0.00,,,0.00,0,weatherlink.com 1.10,2013-02-01 06:54:00,
2013-01-31 23:00:00,45.3,29.6,30.19,East,90,0.0,3.0,54,0.00,,---,0.00,0.00,VWS V14.01,2013-02-01 07:00:00,
2013-01-31 23:09:00,44.6,29.0,30.19,East,85,0.0,0.0,54,0.00,,,0.00,0,weatherlink.com 1.10,2013-02-01 07:09:00,
2013-01-31 23:15:00,44.6,29.5,30.19,East,90,0.0,0.0,55,0.00,,---,0.00,0.00,VWS V14.01,2013-02-01 07:15:00,
2013-01-31 23:24:00,43.9,28.0,30.19,East,85,0.0,0.0,55,0.00,,,0.00,0,weatherlink.com 1.10,2013-02-01 07:24:00,
2013-01-31 23:30:00,43.9,29.2,30.19,East,90,0.0,0.0,56,0.00,,---,0.00,0.00,VWS V14.01,2013-02-01 07:30:00,
2013-01-31 23:39:00,43.3,28.0,30.19,East,85,0.0,0.0,56,0.00,,,0.00,0,weatherlink.com 1.10,2013-02-01 07:39:00,
2013-01-31 23:45:00,43.4,28.8,30.19,East,90,0.0,0.0,56,0.00,,---,0.00,0.00,VWS V14.01,2013-02-01 07:45:00,
2013-01-31 23:54:00,43.5,29.0,30.19,East,85,0.0,0.0,56,0.00,,,0.00,0,weatherlink.com 1.10,2013-02-01 07:54:00,